TimeEST,TemperatureF,Dew PointF,Humidity,Sea Level PressureIn,VisibilityMPH,Wind Direction,Wind SpeedMPH,Gust SpeedMPH,PrecipitationIn,Events,Conditions,WindDirDegrees,DateUTC
12:15 AM,33.8,30.2,87,30.23,10.0,NNW,8.1,-,N/A,,Clear,330,2013-01-18 05:15:00
12:35 AM,33.8,30.2,87,30.25,10.0,NW,10.4,-,N/A,,Clear,320,2013-01-18 05:35:00
12:55 AM,33.8,28.4,81,30.25,10.0,NW,11.5,23.0,0.01,,Clear,310,2013-01-18 05:55:00
1:15 AM,33.8,28.4,81,30.26,10.0,NW,10.4,23.0,N/A,,Clear,320,2013-01-18 06:15:00
1:35 AM,33.8,28.4,81,30.27,10.0,NW,9.2,16.1,N/A,,Clear,320,2013-01-18 06:35:00
1:55 AM,33.8,26.6,75,30.28,10.0,NW,10.4,19.6,N/A,,Clear,320,2013-01-18 06:55:00
2:15 AM,33.8,26.6,75,30.29,10.0,NNW,13.8,20.7,N/A,,Clear,340,2013-01-18 07:15:00
2:35 AM,33.8,24.8,70,30.30,10.0,North,15.0,23.0,N/A,,Clear,350,2013-01-18 07:35:00
2:55 AM,32.0,24.8,75,30.31,10.0,NNW,10.4,20.7,N/A,,Clear,330,2013-01-18 07:55:00
3:15 AM,32.0,24.8,75,30.31,10.0,NNW,4.6,-,N/A,,Clear,340,2013-01-18 08:15:00
3:35 AM,32.0,24.8,75,30.31,10.0,NNW,3.5,-,N/A,,Clear,330,2013-01-18 08:35:00
3:55 AM,32.0,24.8,75,30.32,10.0,NNW,3.5,-,N/A,,Clear,330,2013-01-18 08:55:00
4:15 AM,32.0,24.8,75,30.31,10.0,NW,4.6,-,N/A,,Clear,320,2013-01-18 09:15:00
4:35 AM,32.0,24.8,75,30.31,10.0,NW,8.1,-,N/A,,Clear,320,2013-01-18 09:35:00
4:55 AM,32.0,24.8,75,30.32,10.0,Calm,Calm,-,N/A,,Clear,0,2013-01-18 09:55:00
5:15 AM,30.2,26.6,86,30.32,10.0,SSE,3.5,-,N/A,,Clear,160,2013-01-18 10:15:00
5:35 AM,28.4,26.6,93,30.32,10.0,Calm,Calm,-,N/A,,Clear,0,2013-01-18 10:35:00
5:55 AM,30.2,26.6,86,30.34,10.0,Calm,Calm,-,N/A,,Clear,0,2013-01-18 10:55:00
6:15 AM,30.2,24.8,80,30.35,10.0,Calm,Calm,-,N/A,,Clear,0,2013-01-18 11:15:00
6:35 AM,28.4,23.0,80,30.35,10.0,Calm,Calm,-,N/A,,Clear,0,2013-01-18 11:35:00
7:35 AM,28.4,23.0,80,30.39,10.0,Calm,Calm,-,N/A,,Clear,0,2013-01-18 12:35:00
7:55 AM,28.4,24.8,86,30.40,10.0,WSW,3.5,-,N/A,,Clear,250,2013-01-18 12:55:00
8:15 AM,32.0,21.2,64,30.41,10.0,West,3.5,-,N/A,,Clear,270,2013-01-18 13:15:00
8:35 AM,32.0,21.2,64,30.42,10.0,Calm,Calm,-,N/A,,Clear,0,2013-01-18 13:35:00
8:55 AM,33.8,23.0,65,30.44,10.0,Calm,Calm,-,0.01,,Clear,0,2013-01-18 13:55:00
9:15 AM,32.0,26.6,80,30.46,10.0,SSE,5.8,-,0.01,,Clear,150,2013-01-18 14:15:00
9:35 AM,33.8,26.6,75,30.47,10.0,South,3.5,-,0.03,,Clear,180,2013-01-18 14:35:00
9:55 AM,35.6,24.8,65,30.49,10.0,Calm,Calm,-,0.05,,Clear,0,2013-01-18 14:55:00
10:15 AM,35.6,28.4,75,30.50,10.0,SE,3.5,-,0.01,,Clear,140,2013-01-18 15:15:00
10:35 AM,35.6,26.6,70,30.51,10.0,SSE,4.6,-,0.01,,Clear,160,2013-01-18 15:35:00
10:55 AM,37.4,26.6,65,30.51,10.0,Calm,Calm,-,0.01,,Clear,0,2013-01-18 15:55:00
11:15 AM,37.4,24.8,60,30.51,10.0,WSW,3.5,-,N/A,,Clear,240,2013-01-18 16:15:00
11:35 AM,39.2,23.0,52,30.51,10.0,Calm,Calm,-,N/A,,Clear,0,2013-01-18 16:35:00
11:55 AM,41.0,17.6,39,30.51,10.0,NNE,5.8,-,N/A,,Clear,20,2013-01-18 16:55:00
12:15 PM,41.0,28.4,61,30.50,10.0,SE,6.9,-,N/A,,Clear,140,2013-01-18 17:15:00
12:35 PM,39.2,28.4,65,30.49,10.0,ESE,6.9,-,N/A,,Clear,110,2013-01-18 17:35:00
12:55 PM,41.0,28.4,61,30.49,10.0,Calm,Calm,-,N/A,,Clear,0,2013-01-18 17:55:00
1:15 PM,41.0,24.8,53,30.49,10.0,Calm,Calm,-,N/A,,Clear,0,2013-01-18 18:15:00
1:35 PM,41.0,23.0,49,30.49,10.0,Calm,Calm,-,N/A,,Clear,0,2013-01-18 18:35:00
1:55 PM,42.8,23.0,46,30.49,10.0,ESE,3.5,-,N/A,,Clear,120,2013-01-18 18:55:00
2:15 PM,42.8,28.4,57,30.49,10.0,SE,6.9,-,N/A,,Clear,140,2013-01-18 19:15:00
2:35 PM,42.8,26.6,53,30.48,10.0,SE,5.8,-,N/A,,Clear,140,2013-01-18 19:35:00
2:55 PM,42.8,24.8,49,30.49,10.0,SE,3.5,-,N/A,,Clear,130,2013-01-18 19:55:00
3:15 PM,42.8,26.6,53,30.49,10.0,SSE,4.6,-,N/A,,Clear,150,2013-01-18 20:15:00
3:35 PM,42.8,24.8,49,30.49,10.0,Calm,Calm,-,N/A,,Clear,0,2013-01-18 20:35:00
3:55 PM,42.8,23.0,46,30.49,10.0,ESE,3.5,-,N/A,,Clear,110,2013-01-18 20:55:00
4:15 PM,42.8,24.8,49,30.49,10.0,ESE,4.6,-,N/A,,Clear,120,2013-01-18 21:15:00
4:35 PM,42.8,24.8,49,30.50,10.0,SE,3.5,-,N/A,,Clear,130,2013-01-18 21:35:00
4:55 PM,42.8,23.0,46,30.51,10.0,SE,3.5,-,N/A,,Clear,130,2013-01-18 21:55:00
5:15 PM,41.0,24.8,53,30.51,10.0,Calm,Calm,-,N/A,,Clear,0,2013-01-18 22:15:00
5:35 PM,39.2,24.8,56,30.51,10.0,East,3.5,-,N/A,,Clear,90,2013-01-18 22:35:00
5:55 PM,37.4,23.0,56,30.52,10.0,East,3.5,-,N/A,,Clear,90,2013-01-18 22:55:00
6:15 PM,37.4,23.0,56,30.53,10.0,Calm,Calm,-,N/A,,Clear,0,2013-01-18 23:15:00
6:35 PM,35.6,23.0,60,30.53,10.0,Calm,Calm,-,N/A,,Clear,0,2013-01-18 23:35:00
6:55 PM,35.6,23.0,60,30.54,10.0,Calm,Calm,-,N/A,,Clear,0,2013-01-18 23:55:00
7:15 PM,35.6,23.0,60,30.54,10.0,ENE,3.5,-,N/A,,Clear,70,2013-01-19 00:15:00
7:35 PM,32.0,24.8,75,30.54,10.0,NE,3.5,-,N/A,,Clear,40,2013-01-19 00:35:00
7:55 PM,32.0,24.8,75,30.53,10.0,NNE,4.6,-,N/A,,Clear,20,2013-01-19 00:55:00
8:15 PM,32.0,24.8,75,30.53,10.0,North,5.8,-,N/A,,Clear,360,2013-01-19 01:15:00
8:55 PM,30.2,26.6,86,30.53,10.0,Calm,Calm,-,N/A,,Clear,0,2013-01-19 01:55:00
9:15 PM,30.2,26.6,86,30.53,10.0,Calm,Calm,-,N/A,,Clear,0,2013-01-19 02:15:00
9:55 PM,30.2,26.6,86,30.53,10.0,Calm,Calm,-,N/A,,Clear,0,2013-01-19 02:55:00
10:15 PM,30.2,26.6,86,30.53,10.0,Calm,Calm,-,N/A,,Clear,0,2013-01-19 03:15:00
10:35 PM,28.4,26.6,93,30.53,10.0,Calm,Calm,-,N/A,,Clear,0,2013-01-19 03:35:00
10:55 PM,28.4,28.4,100,30.53,10.0,Calm,Calm,-,N/A,,Clear,0,2013-01-19 03:55:00
11:15 PM,28.4,26.6,93,30.53,10.0,Calm,Calm,-,N/A,,Clear,0,2013-01-19 04:15:00
11:35 PM,28.4,26.6,93,30.52,10.0,Calm,Calm,-,N/A,,Clear,0,2013-01-19 04:35:00
11:55 PM,28.4,28.4,100,30.52,10.0,Calm,Calm,-,N/A,,Clear,0,2013-01-19 04:55:00